Location: Noordwijk
(52.2400°N, 4.4500°E)
Time: 11:09:08
(UTC+00:00)

ISS - Visible Passes

Search period start: 04 December 2022 00:00
Search period end: 14 December 2022 00:00
Orbit: 414 x 420 km, 51.6° (Epoch: 04 December)

Date Brightness Start Highest point End Pass type
(mag) Time Alt. Az. Time Alt. Az. Time Alt. Az.
04 Dec -1.5 17:39:37 10° W 17:42:17 22° SSW 17:44:45 11° SSE visible
05 Dec -1.9 16:51:18 10° W 16:54:17 30° SSW 16:57:17 10° SE visible
06 Dec -0.5 17:41:15 10° WSW 17:42:19 11° SW 17:43:24 10° SSW visible
07 Dec -0.7 16:52:11 10° WSW 16:54:22 16° SW 16:56:33 10° S visible
